Location: Clifton Park
(41.4873°N, 81.8024°W)
Time: 10:36:06
(UTC+00:00)

Cosmos 2058 Rocket - Pass Details

Date: 21 January 2020
Orbit: 610 x 639 km, 82.5° (Epoch: 16 February)

Event Time Altitude Azimuth Distance (km) Brightness Sun altitude
Rises 11:40:15 0° 194° (SSW) 2,893 6.5 -12.7°
Reaches altitude 10° 11:42:30 10° 197° (SSW) 1,986 5.6 -12.3°
Maximum altitude 11:46:52 64° 279° (W) 688 3.0 -11.5°
Drops below altitude 10° 11:51:14 10° 2° (N) 1,985 5.5 -10.8°
Sets 11:53:28 0° 5° (N) 2,891 6.4 -10.4°
